Tracking 19636 objects as of 25-May-2019
HD Live streaming from Space Station
objects crossing your sky now

SL-16 R/B

Track SL-16 R/B now!
10-day predictions
SL-16 R/B is classified as:


NORAD ID: 24298
Int'l Code: 1996-051B
Perigee: 844.7 km
Apogee: 871.9 km
Inclination: 70.8 °
Period: 102.0 minutes
Semi major axis: 7229 km
RCS: 8.785 m2 (large)
Launch date: September 4, 1996
Source: Commonwealth of Independent States (former USSR) (CIS)
Launch site: TYURATAM MISSILE AND SPACE COMPLEX (TTMTR)

Note: This is a ROCKET BODY
aabbcc
Your satellite tracking list
Your tracking list is empty




NASA's NSSDC Master Catalog

Two Line Element Set (TLE):
1 24298U 96051B   19144.86655878  .00000041  00000-0  48374-4 0  9993
2 24298  70.8274  12.0441 0018836 217.6978 142.2823 14.12399334171609
Source of the keplerian elements: AFSPC